15min,AgWx,beryljct,423,24MAY2020:00:00:00,39.6,12.85,39.3,39.6,40.3,40.8,39.6,44,46,42,0.380,20.0,20.6,19.6,1.666,1.5,4.5,25,2.9,-0.00010,-0.00012,55.1,56.0,18,0,.,.,13.52,0.00,0.00
15min,AgWx,beryljct,423,24MAY2020:00:15:00,39.3,12.85,39.3,38.6,38.8,39.5,38.5,46,48,44,0.353,19.6,20.6,18.7,1.71,2.2,0.2,15,3.4,-0.00004,-0.00002,54.9,55.9,18,0,.,.,13.52,0.00,0.00
15min,AgWx,beryljct,423,24MAY2020:00:30:00,38.9,12.83,38.7,38.0,38.1,38.7,37.5,46,49,44,0.360,19.3,20.0,18.4,3.201,1.5,359,20,3.2,-0.00011,-0.00013,54.7,55.9,18,0,.,.,13.52,0.00,0.00
15min,AgWx,beryljct,423,24MAY2020:00:45:00,38.3,12.82,33.7,33.4,35.9,38.2,33.4,55,65,46,0.417,21.0,22.8,19.0,3.771,3.6,324,5.4,4.5,0.00003,0.00006,54.5,55.9,18,0,.,.,13.52,0.00,0.00
15min,AgWx,beryljct,423,24MAY2020:01:00:00,37.4,12.8,32.8,32.6,33.8,34.7,32.6,62,67,58,0.420,22.0,23.1,20.8,3.727,4.0,330,12,5.2,0.00001,0.00004,54.3,55.8,18,0,.,.,13.52,0.00,0.00
15min,AgWx,beryljct,423,24MAY2020:01:15:00,36.7,12.81,38.2,36.3,35.4,37.3,32.6,59,70,53,0.413,22.4,23.9,21.4,4.428,4.0,298,2.3,5.0,0.00003,0.00006,54.1,55.8,18,0,.,.,13.52,0.00,0.00
15min,AgWx,beryljct,423,24MAY2020:01:30:00,36.5,12.78,36.5,36.7,36.9,37.6,36.0,56,59,54,0.413,22.5,22.9,22.1,5.086,4.1,308,15,5.4,0.00005,0.00008,53.9,55.7,18,0,.,.,13.52,0.00,0.00
15min,AgWx,beryljct,423,24MAY2020:01:45:00,36.3,12.76,37.8,37.5,36.4,38.0,35.5,57,60,52,0.405,22.6,23.1,21.8,5.196,5.1,296,1.9,5.8,0.00008,0.00012,53.7,55.7,18,0,.,.,13.53,0.00,0.00
15min,AgWx,beryljct,423,24MAY2020:02:00:00,36.2,12.76,36.6,36.0,36.3,37.6,34.5,58,66,53,0.424,23.0,24.2,22.0,4.867,4.0,296,2.4,5.0,0.00003,0.00006,53.6,55.6,18,0,.,.,13.53,0.00,0.00
15min,AgWx,beryljct,423,24MAY2020:02:15:00,35.9,12.76,34.1,34.0,35.3,36.5,33.8,60,66,56,0.433,22.6,23.7,22.0,2.894,4.6,308,4.7,6.5,0.00005,0.00008,53.4,55.6,18,0,.,.,13.53,0.00,0.00
15min,AgWx,beryljct,423,24MAY2020:02:30:00,35.6,12.75,35.7,35.1,34.7,35.1,34.0,62,65,59,0.420,22.8,23.7,22.2,4.954,4.7,312,3.6,5.3,0.00004,0.00007,53.2,55.5,18,0,.,.,13.52,0.00,0.00
15min,AgWx,beryljct,423,24MAY2020:02:45:00,35.2,12.73,34.2,32.5,33.7,35.2,31.8,64,70,59,0.421,22.8,23.3,22.1,4.845,4.1,313,3.9,5.3,0.00001,0.00003,53.0,55.4,18,0,.,.,13.53,0.00,0.00
15min,AgWx,beryljct,423,24MAY2020:03:00:00,34.7,12.73,33.8,32.8,33.6,34.9,32.5,63,67,60,0.408,22.4,23.1,21.9,3.946,3.7,321,10,5.1,0.00000,0.00002,52.9,55.3,18,0,.,.,13.53,0.00,0.00
15min,AgWx,beryljct,423,24MAY2020:03:15:00,34.2,12.71,34.1,33.9,32.5,34.0,31.3,67,73,61,0.400,22.7,23.7,21.6,4.253,3.8,314,5.0,5.2,-0.00001,0.00001,52.7,55.3,18,0,.,.,13.53,0.00,0.00
15min,AgWx,beryljct,423,24MAY2020:03:30:00,34.0,12.72,33.2,33.5,33.6,35.1,32.3,61,65,56,0.399,21.6,22.1,20.7,3.573,3.8,318,8.7,5.2,0.00001,0.00003,52.6,55.3,18,0,.,.,13.53,0.00,0.00
15min,AgWx,beryljct,423,24MAY2020:03:45:00,33.8,12.69,32.4,31.9,32.7,34.4,30.9,65,71,59,0.399,22.2,22.9,21.4,4.713,3.7,332,9.5,4.9,-0.00001,0.00001,52.4,55.2,18,0,.,.,13.53,0.00,0.00
15min,AgWx,beryljct,423,24MAY2020:04:00:00,33.4,12.68,31.8,31.2,31.5,32.7,30.5,65,71,59,0.395,21.2,22.2,19.6,2.653,3.5,322,11,4.9,-0.00001,-0.00000,52.3,55.1,18,0,.,.,13.53,0.00,0.00
15min,AgWx,beryljct,423,24MAY2020:04:15:00,33.0,12.7,34.8,34.1,32.7,34.5,31.2,63,67,58,0.406,21.3,22.4,19.6,2.433,2.4,315,7.4,3.6,-0.00006,-0.00006,52.1,55.1,18,0,.,.,13.53,0.00,0.00
15min,AgWx,beryljct,423,24MAY2020:04:30:00,32.8,12.67,35.4,35.1,34.8,36.7,33.7,61,64,54,0.412,22.5,23.2,21.6,0.965,2.0,314,8.7,3.7,-0.00008,-0.00009,52.0,55.0,18,0,.,.,13.53,0.00,0.00
15min,AgWx,beryljct,423,24MAY2020:04:45:00,32.5,12.66,32.6,32.9,33.9,35.2,32.4,63,69,59,0.425,22.7,23.4,21.8,2.148,1.0,314,5.9,2.3,0.00008,0.00013,51.9,54.9,18,0,.,.,13.53,0.00,0.00
15min,AgWx,beryljct,423,24MAY2020:05:00:00,32.1,12.66,31.4,30.4,30.8,33.0,29.8,75,81,67,0.461,23.8,25.2,22.9,0.702,0.7,305,1.4,2.2,0.00004,0.00006,51.7,54.9,18,0,.,.,13.53,0.00,0.00
15min,AgWx,beryljct,423,24MAY2020:05:15:00,31.6,12.66,31.9,31.6,30.8,31.8,29.4,76,84,69,0.417,24.0,25.2,22.8,0,0.7,144,44,2.8,0.00005,0.00007,51.6,54.8,18,2,.,.,13.53,0.00,0.00
15min,AgWx,beryljct,423,24MAY2020:05:30:00,31.2,12.67,28.7,30.3,30.5,31.6,29.9,74,76,70,0.416,23.2,23.6,22.6,3.288,1.4,331,54,4.0,0.00012,0.00016,51.4,54.7,18,13,.,.,13.53,0.00,0.00
15min,AgWx,beryljct,423,24MAY2020:05:45:00,31.4,12.67,31.1,31.8,29.8,31.9,28.6,77,81,69,0.425,23.3,24.1,22.3,1.425,0.8,336,22,3.0,0.00022,0.00026,51.3,54.7,18,45,.,.,13.53,0.00,0.00
15min,AgWx,beryljct,423,24MAY2020:06:00:00,32.0,12.68,28.1,28.0,29.7,32.4,28.0,68,77,61,0.398,20.3,23.5,18.1,1.359,2.7,332,14,5.1,0.00040,0.00052,51.1,54.6,18,80,.,.,13.53,0.00,0.00
15min,AgWx,beryljct,423,24MAY2020:06:15:00,32.9,12.64,30.0,29.9,28.7,31.8,27.9,75,81,65,0.399,21.8,23.6,20.0,1.578,1.9,328,14,4.1,0.00045,0.00053,51.0,54.6,18,118,.,.,13.53,0.00,0.00
15min,AgWx,beryljct,423,24MAY2020:06:30:00,34.5,12.68,36.5,34.8,32.1,34.8,29.8,66,73,59,0.437,22.0,23.8,19.7,1.491,1.0,349,6.3,2.7,0.00063,0.00071,50.8,54.5,18,162,.,.,13.53,0.00,0.00
15min,AgWx,beryljct,423,24MAY2020:06:45:00,37.0,12.66,40.9,40.5,37.4,40.6,34.9,59,66,53,0.458,24.4,25.4,23.4,2.302,1.9,344,15,3.5,0.00092,0.00108,50.7,54.4,18,207,.,.,13.53,0.00,0.00
15min,AgWx,beryljct,423,24MAY2020:07:00:00,40.3,12.68,42.9,42.9,41.9,43.0,39.4,49,60,43,0.407,24.3,26.8,22.0,5.152,3.8,8.6,16,6.8,0.00134,0.00168,50.5,54.4,18,258,.,.,13.53,0.00,0.00
15min,AgWx,beryljct,423,24MAY2020:07:15:00,43.1,12.7,43.9,43.7,43.2,43.9,42.7,46,50,43,0.426,23.7,25.9,21.9,7.19,5.8,14,10,7.6,0.00169,0.00220,50.4,54.3,18,309,.,.,13.53,0.00,0.00
15min,AgWx,beryljct,423,24MAY2020:07:30:00,45.4,12.74,45.2,45.0,44.4,45.1,43.7,48,52,44,0.486,25.7,28.4,23.1,4.713,5.4,23,12,7.7,0.00190,0.00240,50.3,54.2,18,362,.,.,13.52,0.00,0.00
15min,AgWx,beryljct,423,24MAY2020:07:45:00,47.4,12.79,45.6,45.9,45.4,46.5,44.7,44,49,41,0.453,25.0,27.9,22.7,4.494,4.7,24,15,7.1,0.00216,0.00266,50.2,54.2,18,413,.,.,13.52,0.00,0.00
15min,AgWx,beryljct,423,24MAY2020:08:00:00,49.3,12.92,47.8,47.1,46.4,47.3,45.8,45,48,42,0.483,26.2,28.6,24.0,2.85,4.4,42,15,6.8,0.00241,0.00291,50.2,54.1,18,465,.,.,13.52,0.00,0.00
15min,AgWx,beryljct,423,24MAY2020:08:15:00,51.3,13.17,48.0,48.4,48.0,49.1,47.3,45,50,42,0.499,27.9,31.2,25.9,2.083,4.2,57,25,6.9,0.00270,0.00321,50.1,54.0,18,516,.,.,13.51,0.00,0.00
15min,AgWx,beryljct,423,24MAY2020:08:30:00,53.3,13.49,52.1,51.1,50.3,51.7,48.3,42,47,38,0.546,27.9,31.0,24.8,5.853,5.2,31,28,10.7,0.00309,0.00374,50.2,54.0,18,565,.,.,13.51,0.00,0.00
15min,AgWx,beryljct,423,24MAY2020:08:45:00,54.8,13.81,53.1,52.0,51.4,52.1,50.7,41,44,38,0.550,28.3,30.7,26.2,5.985,7.1,36,20,11.0,0.00343,0.00425,50.2,53.9,18,613,.,.,13.51,0.00,0.00
15min,AgWx,beryljct,423,24MAY2020:09:00:00,56.2,14.09,54.0,53.1,53.0,53.8,52.2,41,45,37,0.552,29.8,32.7,27.7,6.292,9.1,52,14,14.5,0.00377,0.00476,50.2,53.8,18,660,.,.,13.51,0.00,0.00
15min,AgWx,beryljct,423,24MAY2020:09:15:00,57.4,14.34,54.2,53.8,53.9,54.6,52.9,39,45,37,0.543,29.8,33.0,27.5,11.99,9.8,45,15,14.7,0.00405,0.00512,50.3,53.8,18,704,.,.,13.51,0.00,0.00
15min,AgWx,beryljct,423,24MAY2020:09:30:00,58.2,14.33,53.9,54.4,54.4,55.2,53.8,39,43,34,0.556,29.9,32.6,26.5,9.1,10.3,39,17,15.2,0.00429,0.00543,50.4,53.7,18,746,.,.,13.51,0.00,0.00
15min,AgWx,beryljct,423,24MAY2020:09:45:00,58.9,14.31,55.7,54.8,54.7,55.8,54.1,40,46,37,0.576,31.1,35.1,28.4,9.34,10.0,66,20,16.7,0.00446,0.00558,50.6,53.7,17,786,.,.,13.50,0.00,0.00
15min,AgWx,beryljct,423,24MAY2020:10:00:00,59.6,14.26,55.9,55.2,55.4,56.2,54.9,39,44,35,0.539,30.8,34.6,27.9,6.752,10.3,40,17,19.1,0.00471,0.00590,50.7,53.6,17,825,.,.,13.50,0.00,0.00
15min,AgWx,beryljct,423,24MAY2020:10:15:00,60.5,14.26,57.0,55.5,56.3,57.6,55.3,40,44,34,0.571,32.1,35.4,27.7,5.612,8.9,46,17,16.0,0.00492,0.00603,50.9,53.6,17,860,.,.,13.50,0.00,0.00
15min,AgWx,beryljct,423,24MAY2020:10:30:00,61.4,14.25,56.3,56.5,56.7,57.8,55.8,39,48,35,0.555,32.1,38.0,28.8,16.02,9.2,40,15,16.0,0.00510,0.00624,51.1,53.6,17,890,.,.,13.50,0.00,0.00
15min,AgWx,beryljct,423,24MAY2020:10:45:00,61.9,14.24,56.7,56.6,57.0,58.1,56.2,38,47,31,0.545,31.6,37.7,26.4,7.76,9.1,38,21,17.4,0.00528,0.00646,51.4,53.5,17,918,.,.,13.50,0.00,0.00
15min,AgWx,beryljct,423,24MAY2020:11:00:00,62.4,14.2,57.3,57.7,57.6,58.3,56.6,38,43,32,0.605,32.0,35.8,27.9,8,9.7,47,22,15.0,0.00545,0.00669,51.6,53.5,17,943,.,.,13.50,0.00,0.00
15min,AgWx,beryljct,423,24MAY2020:11:15:00,63.0,14.26,58.5,58.1,58.6,59.7,57.5,38,50,30,0.529,33.2,40.2,27.3,3.595,8.5,41,19,13.2,0.00564,0.00682,51.9,53.5,17,967,.,.,13.50,0.00,0.00
15min,AgWx,beryljct,423,24MAY2020:11:30:00,63.7,14.16,60.1,59.8,59.3,60.4,58.2,37,44,30,0.650,32.9,37.4,27.7,12.85,8.6,44,26,14.7,0.00582,0.00704,52.2,53.5,17,986,.,.,13.50,0.00,0.00
15min,AgWx,beryljct,423,24MAY2020:11:45:00,64.3,13.77,60.4,60.4,60.0,61.2,58.9,32,42,26,0.541,30.3,37.2,25.4,10.87,9.9,26,21,16.8,0.00603,0.00744,52.6,53.5,17,1001,.,.,13.50,0.00,0.00
15min,AgWx,beryljct,423,24MAY2020:12:00:00,64.7,13.77,59.3,59.6,59.7,60.8,58.7,36,42,30,0.624,32.7,37.0,27.3,6.993,10.2,50,15,18.4,0.00596,0.00734,53.0,53.5,17,1010,.,.,13.49,0.00,0.00
15min,AgWx,beryljct,423,24MAY2020:12:15:00,65.1,13.73,60.1,60.9,60.3,61.5,59.4,36,45,31,0.732,33.5,39.0,29.1,13,8.9,57,19,15.6,0.00604,0.00732,53.4,53.5,17,1016,.,.,13.50,0.00,0.00
15min,AgWx,beryljct,423,24MAY2020:12:30:00,65.4,13.83,60.9,60.9,60.3,61.6,59.2,36,41,27,0.658,33.1,37.0,24.9,11.93,9.6,63,19,16.1,0.00607,0.00742,53.8,53.5,17,1021,.,.,13.49,0.00,0.00
15min,AgWx,beryljct,423,24MAY2020:12:45:00,65.8,13.83,60.7,61.1,60.6,61.5,59.7,32,40,23,0.579,30.5,36.5,21.9,11.07,9.5,42,28,16.5,0.00616,0.00758,54.3,53.6,17,1020,.,.,13.49,0.00,0.00
15min,AgWx,beryljct,423,24MAY2020:13:00:00,66.2,13.75,61.3,61.5,61.1,61.9,60.5,31,38,23,0.674,30.3,35.5,23.0,6.423,8.4,43,32,15.4,0.00621,0.00757,54.8,53.6,17,1019,.,.,13.49,0.00,0.00
15min,AgWx,beryljct,423,24MAY2020:13:15:00,66.7,13.73,63.0,62.2,61.7,62.7,60.9,31,39,23,0.577,30.3,37.0,23.0,12.34,8.0,33,53,20.7,0.00622,0.00754,55.3,53.6,17,1009,.,.,13.49,0.00,0.00
15min,AgWx,beryljct,423,24MAY2020:13:30:00,67.2,13.69,62.4,62.9,62.6,63.9,61.7,30,37,21,0.443,30.3,36.5,22.1,14.23,9.3,27,28,16.3,0.00628,0.00775,55.7,53.7,17,999,.,.,13.49,0.00,0.00
15min,AgWx,beryljct,423,24MAY2020:13:45:00,67.7,13.68,61.5,62.5,62.3,63.4,61.2,29,42,22,0.589,29.2,39.3,22.8,4.845,4.8,39,59,13.2,0.00607,0.00711,56.2,53.7,17,983,.,.,13.49,0.00,0.00
15min,AgWx,beryljct,423,24MAY2020:14:00:00,68.5,13.63,64.0,63.0,63.1,64.0,62.0,32,44,22,0.701,32.5,40.7,22.8,3.749,6.0,45,31,14.9,0.00602,0.00715,56.7,53.8,17,963,.,.,13.49,0.00,0.00
15min,AgWx,beryljct,423,24MAY2020:14:15:00,68.7,13.63,63.9,63.7,62.6,63.7,62.0,34,42,26,0.528,33.9,39.7,28.4,7.125,8.6,80,27,12.9,0.00588,0.00720,57.1,53.8,17,941,.,.,13.49,0.00,0.00
15min,AgWx,beryljct,423,24MAY2020:14:30:00,69.1,13.6,63.4,64.0,64.5,65.7,63.1,26,36,20,0.715,29.0,36.9,22.5,12.28,8.0,19,35,12.4,0.00602,0.00744,57.5,53.9,17,918,.,.,13.49,0.00,0.00
15min,AgWx,beryljct,423,24MAY2020:14:45:00,69.5,13.72,66.7,64.7,63.9,65.2,63.1,30,38,19,0.519,31.2,37.0,20.6,11.55,10.1,42,18,15.8,0.00585,0.00740,57.9,54.0,17,891,.,.,13.49,0.00,0.00
15min,AgWx,beryljct,423,24MAY2020:15:00:00,69.9,13.67,66.5,65.7,64.7,65.9,63.8,25,31,18,0.403,27.5,34.4,20.4,6.511,10.6,24,18,16.0,0.00588,0.00759,58.3,54.1,17,860,.,.,13.49,0.00,0.00
15min,AgWx,beryljct,423,24MAY2020:15:15:00,70.6,13.64,64.5,65.4,65.7,67.5,63.9,22,30,16,0.512,26.0,34.1,17.9,10.37,9.7,16,24,15.5,0.00531,0.00695,58.6,54.1,17,743,.,.,13.49,0.00,0.00
15min,AgWx,beryljct,423,24MAY2020:15:30:00,71.1,13.59,66.1,66.4,65.6,66.9,64.6,23,31,17,0.422,26.3,33.9,19.1,18.41,10.9,18,15,19.0,0.00546,0.00721,58.9,54.2,17,758,.,.,13.49,0.00,0.00
15min,AgWx,beryljct,423,24MAY2020:15:45:00,71.3,13.6,64.4,64.5,65.7,67.1,64.4,22,29,17,0.530,25.2,32.5,19.0,13.66,12.7,19,17,21.3,0.00559,0.00756,59.1,54.3,17,751,.,.,13.49,0.00,0.00
15min,AgWx,beryljct,423,24MAY2020:16:00:00,71.0,13.68,64.2,63.9,64.5,65.7,63.8,27,32,21,0.594,29.3,33.6,24.4,15.24,12.6,34,13,17.4,0.00513,0.00693,59.3,54.4,17,706,.,.,13.49,0.00,0.00
15min,AgWx,beryljct,423,24MAY2020:16:15:00,70.7,13.62,63.6,63.7,64.2,65.3,63.5,28,32,24,0.627,30.7,33.2,27.5,7.607,12.5,38,15,17.7,0.00477,0.00650,59.4,54.5,17,649,.,.,13.49,0.00,0.00
15min,AgWx,beryljct,423,24MAY2020:16:30:00,70.2,13.59,63.7,63.4,63.6,64.0,63.2,30,33,26,0.642,31.7,34.2,28.5,9.6,11.8,61,14,16.7,0.00446,0.00606,59.5,54.6,17,616,.,.,13.49,0.00,0.00
15min,AgWx,beryljct,423,24MAY2020:16:45:00,69.6,13.63,62.8,63.1,63.4,64.2,63.0,30,35,26,0.636,31.6,34.9,28.4,11.66,13.1,62,16,21.7,0.00429,0.00597,59.6,54.7,17,569,.,.,13.49,0.01,0.00
15min,AgWx,beryljct,423,24MAY2020:17:00:00,69.1,13.63,64.0,64.0,63.3,64.0,62.8,30,34,26,0.535,31.2,34.7,28.6,14.16,12.4,63,14,18.2,0.00401,0.00562,59.6,54.8,17,521,.,.,13.49,0.00,0.00
15min,AgWx,beryljct,423,24MAY2020:17:15:00,68.7,13.67,62.8,63.3,63.4,64.3,62.8,28,32,25,0.560,30.0,32.3,27.2,10.74,12.7,56,15,17.8,0.00382,0.00549,59.6,54.9,17,471,.,.,13.50,0.00,0.00
15min,AgWx,beryljct,423,24MAY2020:17:30:00,68.3,13.64,63.5,63.3,63.2,63.8,62.5,29,34,26,0.527,30.0,33.8,27.7,14.32,12.1,45,13,17.9,0.00349,0.00507,59.6,55.0,17,421,.,.,13.50,0.00,0.00
15min,AgWx,beryljct,423,24MAY2020:17:45:00,67.8,13.29,62.6,62.8,63.0,63.7,62.4,27,31,24,0.596,28.7,31.5,26.3,8.02,13.3,45,11,19.4,0.00337,0.00507,59.6,55.0,17,369,.,.,13.50,0.00,0.00
15min,AgWx,beryljct,423,24MAY2020:18:00:00,67.3,13.16,62.2,62.4,62.6,62.9,62.0,27,31,25,0.500,28.3,31.8,26.3,12.47,13.7,47,11,19.9,0.00313,0.00482,59.5,55.1,17,318,.,.,13.50,0.00,0.00
15min,AgWx,beryljct,423,24MAY2020:18:15:00,66.8,13.12,61.8,61.9,62.1,62.5,61.7,27,29,25,0.508,27.4,29.5,25.8,14.78,14.2,41,9.4,18.8,0.00293,0.00465,59.4,55.2,17,268,.,.,13.50,0.00,0.00
15min,AgWx,beryljct,423,24MAY2020:18:30:00,66.1,13.07,60.7,61.3,61.6,62.3,61.1,27,29,25,0.508,27.1,28.7,26.0,9.27,12.6,47,9.0,17.8,0.00252,0.00409,59.3,55.3,17,220,.,.,13.50,0.00,0.00
15min,AgWx,beryljct,423,24MAY2020:18:45:00,65.4,13.07,61.6,61.3,61.3,61.9,60.7,27,29,25,0.476,26.6,28.7,25.4,13.02,12.2,39,8.7,16.5,0.00222,0.00373,59.2,55.3,17,173,.,.,13.50,0.00,0.00
15min,AgWx,beryljct,423,24MAY2020:19:00:00,64.6,13.07,60.7,60.0,60.4,61.2,59.7,27,30,25,0.479,26.3,28.5,25.1,14.71,11.6,39,9.3,16.3,0.00104,0.00127,59.1,55.4,17,130,.,.,13.50,0.00,0.00
15min,AgWx,beryljct,423,24MAY2020:19:15:00,63.5,13.07,58.0,58.1,59.1,60.4,57.9,29,33,26,0.509,27.2,28.7,25.2,7.782,10.2,46,8.7,15.9,0.00087,0.00107,58.9,55.5,17,88,.,.,13.50,0.00,0.00
15min,AgWx,beryljct,423,24MAY2020:19:30:00,61.9,13.03,57.3,57.0,57.2,58.0,56.6,32,34,29,0.490,27.3,28.5,25.7,11.07,8.9,51,9.0,12.2,0.00069,0.00087,58.8,55.5,17,53,.,.,13.50,0.01,0.00
15min,AgWx,beryljct,423,24MAY2020:19:45:00,60.1,13.01,54.6,55.1,55.9,57.0,55.1,32,34,30,0.486,26.6,27.7,25.7,6.335,8.1,52,8.2,11.9,0.00056,0.00073,58.6,55.6,17,15,.,.,13.51,0.00,0.00
15min,AgWx,beryljct,423,24MAY2020:20:00:00,58.3,13,54.0,54.2,54.6,55.1,54.0,33,34,31,0.474,25.9,26.6,25.0,6.489,7.7,48,9.0,11.3,0.00050,0.00065,58.4,55.6,17,3,.,.,13.51,0.00,0.00
15min,AgWx,beryljct,423,24MAY2020:20:15:00,56.6,12.99,51.9,52.3,53.5,54.5,52.3,34,36,32,0.480,25.9,26.5,25.0,5.174,6.3,50,8.5,11.3,0.00038,0.00052,58.3,55.7,17,0,.,.,13.51,0.00,0.00
15min,AgWx,beryljct,423,24MAY2020:20:30:00,55.1,12.99,50.8,51.2,51.9,52.6,51.1,36,38,33,0.473,25.5,26.2,24.5,4.538,5.5,36,6.2,8.1,0.00031,0.00043,58.1,55.7,17,0,.,.,13.51,0.00,0.00
15min,AgWx,beryljct,423,24MAY2020:20:45:00,53.5,12.98,52.9,51.5,50.6,51.5,50.1,38,39,34,0.444,25.8,26.4,24.2,2.872,3.4,31,7.5,5.1,0.00012,0.00020,57.9,55.8,17,0,.,.,13.51,0.00,0.00
15min,AgWx,beryljct,423,24MAY2020:21:00:00,52.4,12.97,51.3,51.6,52.2,52.7,51.3,32,35,31,0.432,23.6,25.0,23.1,2.894,3.0,9.7,12,4.1,0.00009,0.00017,57.8,55.8,16,0,.,.,13.51,0.00,0.00
15min,AgWx,beryljct,423,24MAY2020:21:15:00,51.5,12.97,49.8,51.3,50.7,51.5,50.1,35,36,33,0.430,23.7,24.4,22.9,0.921,2.0,23,6.3,3.7,-0.00003,0.00000,57.6,55.8,17,0,.,.,13.51,0.00,0.00
15min,AgWx,beryljct,423,24MAY2020:21:30:00,50.6,12.94,49.3,50.2,50.4,51.3,49.8,35,37,33,0.418,23.7,24.8,22.6,2.039,1.7,7.5,14,4.3,-0.00008,-0.00008,57.4,55.9,17,0,.,.,13.51,0.00,0.00
15min,AgWx,beryljct,423,24MAY2020:21:45:00,49.9,12.94,50.6,50.0,49.7,50.5,48.9,34,36,32,0.413,22.8,23.3,22.1,4.406,3.0,15,15,5.2,0.00008,0.00015,57.2,55.9,16,0,.,.,13.51,0.00,0.00
15min,AgWx,beryljct,423,24MAY2020:22:00:00,49.4,12.93,43.1,44.9,47.6,50.1,44.9,39,44,33,0.444,23.8,24.6,22.4,3.705,4.6,349,11,6.1,0.00020,0.00029,57.0,55.9,16,0,.,.,13.51,0.00,0.00
15min,AgWx,beryljct,423,24MAY2020:22:15:00,48.1,12.93,41.6,40.3,41.7,44.7,40.1,53,59,45,0.482,25.9,26.9,24.1,4.012,4.2,317,9.6,5.8,0.00008,0.00012,56.8,55.9,16,0,.,.,13.52,0.00,0.00
15min,AgWx,beryljct,423,24MAY2020:22:30:00,46.7,12.91,50.3,48.8,44.4,48.8,40.3,45,56,34,0.403,24.1,26.1,21.9,6.927,4.6,348,19,8.2,0.00015,0.00022,56.6,55.9,17,0,.,.,13.52,0.00,0.00
15min,AgWx,bigpiney,439,24MAY2020:00:00:00,31.5,12.66,29.1,29.2,29.6,30.0,29.2,81,83,80,0.447,24.6,25.0,24.3,1.162,0.3,356,25,1.4,-0.00014,-0.00021,45.8,42.7,55,0,0,0.0,6.63,0.00,0.00
15min,AgWx,bigpiney,439,24MAY2020:00:15:00,31.0,12.65,28.5,28.3,28.6,29.2,28.1,84,86,82,0.441,24.5,24.7,24.0,1.381,0.5,254,26,1.4,-0.00013,-0.00019,45.6,42.7,55,0,0,0.0,6.63,0.00,0.00
15min,AgWx,bigpiney,439,24MAY2020:00:30:00,30.7,12.64,26.6,26.2,27.2,28.3,26.2,84,86,82,0.413,23.0,24.1,22.3,2.083,2.0,262,12,3.6,-0.00007,-0.00008,45.5,42.7,55,0,0,0.0,6.63,0.00,0.00
15min,AgWx,bigpiney,439,24MAY2020:00:45:00,30.4,12.63,27.5,27.1,26.5,27.1,26.1,85,86,84,0.422,22.7,23.1,22.4,5.042,3.3,286,14,5.4,-0.00004,-0.00004,45.3,42.7,55,0,0,0.0,6.63,0.00,0.00
15min,AgWx,bigpiney,439,24MAY2020:01:00:00,30.1,12.63,27.1,27.0,27.1,27.3,27.0,84,84,83,0.414,22.8,23.1,22.6,2.981,2.9,312,13,5.2,-0.00004,-0.00005,45.2,42.7,55,0,0,0.0,6.63,0.00,0.00
15min,AgWx,bigpiney,439,24MAY2020:01:15:00,29.8,12.62,26.1,25.9,26.5,27.1,25.9,84,85,83,0.405,22.3,22.7,21.9,1.885,2.9,316,19,5.1,-0.00004,-0.00005,45.0,42.7,55,0,0,0.0,6.63,0.00,0.00
15min,AgWx,bigpiney,439,24MAY2020:01:30:00,29.5,12.61,27.8,27.1,26.0,27.1,24.9,85,87,82,0.411,21.9,22.4,21.3,0.044,2.7,236,17,4.6,-0.00005,-0.00005,44.9,42.7,55,0,0,0.0,6.63,0.00,0.00
15min,AgWx,bigpiney,439,24MAY2020:01:45:00,29.1,12.6,26.0,25.6,25.4,27.3,24.3,85,88,80,0.407,21.6,22.5,20.4,0,2.8,78,9.6,6.1,-0.00005,-0.00005,44.7,42.7,55,0,0,0.0,6.63,0.00,0.00
15min,AgWx,bigpiney,439,24MAY2020:02:00:00,28.8,12.59,27.4,27.0,26.7,27.2,25.7,85,87,84,0.421,22.8,23.1,22.2,3.201,1.5,346,17,4.1,-0.00008,-0.00011,44.6,42.7,55,0,0,0.0,6.63,0.00,0.00
15min,AgWx,bigpiney,439,24MAY2020:02:15:00,28.5,12.58,25.7,25.5,26.2,27.1,25.4,85,87,84,0.406,22.5,23.0,21.9,2.85,2.7,269,25,3.7,-0.00005,-0.00006,44.5,42.7,55,0,0,0.0,6.63,0.00,0.00
15min,AgWx,bigpiney,439,24MAY2020:02:30:00,28.4,12.57,26.7,26.0,25.6,26.0,25.3,87,88,86,0.420,22.2,22.9,21.8,6.314,4.1,262,14,6.8,-0.00003,-0.00003,44.3,42.7,55,0,0,0.0,6.63,0.00,0.00
15min,AgWx,bigpiney,439,24MAY2020:02:45:00,28.5,12.56,28.7,28.1,27.1,28.1,26.1,86,88,85,0.441,23.5,24.1,23.0,8.55,7.4,297,9.1,9.2,0.00001,0.00001,44.2,42.6,55,0,0,0.0,6.63,0.00,0.00
15min,AgWx,bigpiney,439,24MAY2020:03:00:00,28.8,12.55,27.7,27.5,28.0,28.3,27.4,85,86,84,0.435,24.0,24.2,23.7,6.16,7.4,310,8.8,9.3,0.00001,0.00002,44.0,42.6,55,0,0,0.0,6.63,0.00,0.00
15min,AgWx,bigpiney,439,24MAY2020:03:15:00,29.0,12.53,27.5,27.0,27.1,27.4,26.9,85,86,85,0.421,23.3,23.7,22.9,6.555,5.5,297,6.9,6.9,-0.00001,-0.00000,43.9,42.6,55,0,0,0.0,6.63,0.00,0.00
15min,AgWx,bigpiney,439,24MAY2020:03:30:00,29.1,12.53,28.2,27.9,27.4,27.9,27.0,83,85,81,0.419,22.9,23.1,22.8,5.042,5.3,294,7.0,7.1,-0.00000,0.00001,43.8,42.6,55,0,0,0.0,6.63,0.00,0.00
15min,AgWx,bigpiney,439,24MAY2020:03:45:00,29.1,12.51,28.7,28.5,28.2,28.5,27.9,81,81,81,0.427,23.1,23.4,22.9,6.379,5.8,293,7.7,8.5,0.00001,0.00002,43.6,42.6,55,0,0,0.0,6.63,0.00,0.00
15min,AgWx,bigpiney,439,24MAY2020:04:00:00,29.2,12.5,28.4,28.2,28.5,28.7,28.2,80,81,80,0.420,23.3,23.5,22.9,4.669,5.8,292,5.6,7.6,0.00002,0.00003,43.5,42.6,55,0,0,0.0,6.63,0.00,0.00
15min,AgWx,bigpiney,439,24MAY2020:04:15:00,29.3,12.48,27.3,27.2,27.9,28.3,27.2,80,81,79,0.406,22.6,23.0,22.1,4.319,4.9,304,9.9,5.6,0.00000,0.00001,43.4,42.6,55,0,0,0.0,6.63,0.00,0.00
15min,AgWx,bigpiney,439,24MAY2020:04:30:00,29.1,12.47,26.0,25.5,26.3,27.3,25.5,82,84,81,0.395,21.6,22.2,21.3,4.297,3.9,324,10,5.0,-0.00002,-0.00002,43.2,42.6,55,0,0,0.0,6.63,0.00,0.00
15min,AgWx,bigpiney,439,24MAY2020:04:45:00,28.8,12.46,24.1,24.0,25.1,25.9,24.0,85,86,84,0.379,21.2,21.8,20.4,3.595,4.2,317,11,5.4,-0.00002,-0.00002,43.1,42.6,55,2,0,0.0,6.63,0.00,0.00
15min,AgWx,bigpiney,439,24MAY2020:05:00:00,28.3,12.46,24.9,24.6,24.1,24.7,23.8,86,87,86,0.387,20.7,21.1,20.3,4.034,4.5,300,5.5,5.6,-0.00001,-0.00001,43.0,42.5,55,7,0,0.0,6.63,0.00,0.00
15min,AgWx,bigpiney,439,24MAY2020:05:15:00,28.0,12.46,26.9,26.6,25.7,26.6,24.6,86,86,85,0.416,22.0,22.7,21.0,5.305,5.2,292,8.1,6.1,-0.00011,-0.00005,42.8,42.5,55,35,0,0.0,6.63,0.00,0.00
15min,AgWx,bigpiney,439,24MAY2020:05:30:00,28.2,12.48,28.5,28.2,27.2,28.2,26.4,85,86,83,0.434,23.2,23.7,22.6,3.814,4.8,289,6.8,5.7,-0.00002,0.00005,42.7,42.5,55,65,0,0.0,6.63,0.00,0.00
15min,AgWx,bigpiney,439,24MAY2020:05:45:00,29.0,12.53,31.0,30.0,29.0,30.0,28.2,83,83,81,0.463,24.3,25.2,23.7,3.091,3.2,284,15,5.7,0.00010,0.00016,42.6,42.5,55,103,0,0.0,6.63,0.00,0.00
15min,AgWx,bigpiney,439,24MAY2020:06:00:00,30.4,12.66,33.8,33.2,31.6,33.2,30.2,79,82,77,0.495,25.8,26.9,25.0,4.209,3.3,295,9.4,5.9,0.00033,0.00042,42.4,42.5,55,158,0,0.0,6.63,0.00,0.00
15min,AgWx,bigpiney,439,24MAY2020:06:15:00,32.4,12.72,35.7,35.6,34.7,35.6,33.2,75,77,72,0.515,27.5,28.1,26.7,5.722,6.9,300,9.8,9.8,0.00054,0.00074,42.3,42.5,55,181,0,0.0,6.63,0.00,0.00
15min,AgWx,bigpiney,439,24MAY2020:06:30:00,34.2,12.9,37.5,37.3,36.7,37.4,35.5,70,74,67,0.527,28.0,28.6,27.5,6.708,8.2,318,11,11.3,0.00070,0.00098,42.2,42.4,55,168,0,0.0,6.63,0.00,0.00
15min,AgWx,bigpiney,439,24MAY2020:06:45:00,35.6,13.09,33.0,32.9,33.6,37.5,32.0,78,84,68,0.515,27.6,28.8,25.6,4.494,4.5,74,45,9.5,0.00059,0.00073,42.1,42.4,55,156,0,0.0,6.63,0.00,0.00
15min,AgWx,bigpiney,439,24MAY2020:07:00:00,36.1,13.27,33.4,33.1,32.3,33.1,31.7,84,86,81,0.532,28.2,29.3,27.5,5.261,5.9,116,17,7.4,0.00060,0.00072,42.0,42.4,55,168,0,0.0,6.63,0.00,0.00
15min,AgWx,bigpiney,439,24MAY2020:07:15:00,36.5,13.49,36.8,36.1,34.7,36.1,33.1,80,83,74,0.534,29.2,30.2,28.3,0,3.3,149,12,6.1,0.00078,0.00091,41.9,42.4,55,202,0,0.0,6.63,0.00,0.00
15min,AgWx,bigpiney,439,24MAY2020:07:30:00,37.4,13.64,39.9,39.7,38.2,39.7,36.0,65,78,56,0.473,27.4,30.3,25.3,9.97,6.8,322,48,11.5,0.00110,0.00142,41.8,42.4,55,231,0,0.0,6.63,0.00,0.00
15min,AgWx,bigpiney,439,24MAY2020:07:45:00,38.7,13.87,40.1,40.0,39.9,40.2,39.7,56,60,51,0.444,25.3,27.2,23.6,9.69,9.4,326,12,13.1,0.00142,0.00193,41.6,42.4,55,262,0,0.0,6.63,0.00,0.00
15min,AgWx,bigpiney,439,24MAY2020:08:00:00,40.3,14.61,40.9,40.8,40.7,41.1,40.0,53,56,49,0.426,24.8,26.6,23.2,6.27,8.2,332,12,11.7,0.00187,0.00240,41.5,42.3,55,400,0,0.0,6.63,0.00,0.00
15min,AgWx,bigpiney,439,24MAY2020:08:15:00,42.0,14.67,41.7,41.9,41.3,42.0,40.8,51,53,48,0.468,24.4,26.2,23.2,11.71,9.5,324,18,15.3,0.00201,0.00261,41.4,42.3,55,411,0,0.0,6.63,0.00,0.00
15min,AgWx,bigpiney,439,24MAY2020:08:30:00,43.5,14.71,42.0,42.0,41.8,42.5,41.3,51,54,49,0.466,25.1,27.0,23.6,10.02,9.5,327,23,14.7,0.00226,0.00289,41.4,42.3,55,480,0,0.0,6.63,0.00,0.00
15min,AgWx,bigpiney,439,24MAY2020:08:45:00,44.9,14.54,43.1,42.4,42.4,43.4,41.7,52,56,48,0.482,25.8,28.3,23.8,6.182,8.0,327,18,13.9,0.00248,0.00307,41.3,42.2,55,533,0,0.0,6.63,0.00,0.00
15min,AgWx,bigpiney,439,24MAY2020:09:00:00,46.3,14.75,44.7,43.0,42.9,43.9,42.2,50,54,46,0.466,25.4,28.4,23.6,4.954,8.1,340,20,12.2,0.00329,0.00395,41.2,42.2,55,752,0,0.0,6.63,0.00,0.00
15min,AgWx,bigpiney,439,24MAY2020:09:15:00,47.5,14.5,44.1,43.5,43.3,44.1,42.2,50,53,47,0.454,25.9,28.1,24.1,6.16,7.6,319,23,14.4,0.00291,0.00353,41.2,42.2,55,624,0,0.0,6.63,0.00,0.00
15min,AgWx,bigpiney,439,24MAY2020:09:30:00,48.3,14.5,45.2,44.2,43.4,44.4,42.7,48,51,45,0.461,25.0,26.6,23.0,4.406,6.1,320,26,12.0,0.00286,0.00343,41.2,42.2,55,593,0,0.0,6.63,0.00,0.00